Вернуться в каталог

STARLINK-3565

АктивенСвязьVLEO
NORAD 51886·PAYLOAD·🇺🇸 United States

Запущен Mar 3, 2022 с Cape Canaveral Space Force Station

Loading…

Ближайшие Пролёты (ближайшие 24 часа)

TLE

СвежийSource: CelesTrak SupGP

Эпоха: Sep 15, 2026, 01:26 UTC

1 51886C 22022AL  26258.06020833 -.00025376  00000+0 -14829-2 0  2589
2 51886  53.1761 227.6343 0001896  61.7906 285.7444 15.11406952    12

Отслеживайте STARLINK-3565 в реальном времени с AllMySat

Download on the App Store